Corvallis, OR

6:00 AM PDT on March 25, 2017 (GMT -0700)
Corvallis Municipal

Weather History for KCVO - July, 2013

Change the Weather History Date:

Wednesday, July 31, 2013

  Actual Average Record
Temperature  
Mean Temperature 64 °F -  
Max Temperature 73 °F 82 °F 104 °F (2015)
Min Temperature 55 °F 53 °F 42 °F (2008)
Degree Days  
Heating Degree Days 1    
Growing Degree Days 14 (Base 50)    
Moisture  
Dew Point 54 °F    
Average Humidity 76    
Maximum Humidity 94    
Minimum Humidity 53    
Precipitation  
Precipitation 0.00 in - - ()
Sea Level Pressure  
Sea Level Pressure 30.10 in    
Wind  
Wind Speed 11 mph (NW)    
Max Wind Speed 21 mph    
Max Gust Speed 26 mph    
Visibility 10 miles    
Events      
Averages and records for this station are not official NWS values.
T = Trace of Precipitation, MM = Missing Value Source: NWS Daily Summary

Daily Weather History Graph

Daily Weather History Graph

Search for Another Location

Airport or City:

Trip Planner

Search our weather history database for the weather conditions in past years. The results will help you decide how hot, cold, wet, or windy it might be!

Date:

Astronomy

Jul. 31, 2013 Rise Set
Actual Time 5:59 AM PDT 8:39 PM PDT
Civil Twilight 5:25 AM PDT 9:12 PM PDT
Nautical Twilight 4:43 AM PDT 9:54 PM PDT
Astronomical Twilight 3:55 AM PDT 10:42 PM PDT
Moon 12:58 AM PDT (7/31) 4:01 PM PDT (7/31)
Length of Visible Light 15h 46m
Length of Day
14h 39m
Waning Crescent, 31% of the Moon is Illuminated
Jul 31
Waning Crescent
Aug 6
New
Aug 14
First Quarter
Aug 20
Full
Aug 28
Last Quarter

Hourly Weather History & Observations

Time (PDT) Temp. Dew Point Humidity Pressure Visibility Wind Dir Wind Speed Gust Speed Precip Events Conditions
12:15 AM 57.2 °F 53.6 °F 88% 30.12 in 10.0 mi WNW 15.0 mph 20.7 mph N/A   Clear
12:35 AM 57.2 °F 53.6 °F 88% 30.13 in 10.0 mi WNW 15.0 mph 20.7 mph N/A   Clear
12:55 AM 57.2 °F 53.6 °F 88% 30.13 in 10.0 mi WNW 16.1 mph - N/A   Clear
1:15 AM 57.2 °F 53.6 °F 88% 30.13 in 10.0 mi WNW 15.0 mph - N/A   Clear
1:35 AM 57.2 °F 53.6 °F 88% 30.13 in 10.0 mi WNW 16.1 mph 19.6 mph N/A   Clear
1:55 AM 57.2 °F 53.6 °F 88% 30.13 in 10.0 mi WNW 13.8 mph - N/A   Clear
2:15 AM 57.2 °F 53.6 °F 88% 30.13 in 10.0 mi WNW 13.8 mph - N/A   Clear
2:35 AM 57.2 °F 53.6 °F 88% 30.12 in 10.0 mi WNW 10.4 mph - N/A   Clear
2:55 AM 57.2 °F 53.6 °F 88% 30.13 in 10.0 mi West 13.8 mph - N/A   Clear
3:15 AM 57.2 °F 53.6 °F 88% 30.13 in 10.0 mi WNW 8.1 mph - N/A   Clear
3:35 AM 57.2 °F 53.6 °F 88% 30.13 in 10.0 mi WNW 8.1 mph - N/A   Clear
3:55 AM 57.2 °F 53.6 °F 88% 30.13 in 10.0 mi West 10.4 mph - N/A   Clear
4:15 AM 57.2 °F 53.6 °F 88% 30.13 in 10.0 mi West 5.8 mph - N/A   Clear
4:35 AM 57.2 °F 53.6 °F 88% 30.13 in 10.0 mi WNW 10.4 mph - N/A   Clear
4:55 AM 55.4 °F 53.6 °F 94% 30.13 in 10.0 mi West 5.8 mph - N/A   Clear
5:15 AM 55.4 °F 53.6 °F 94% 30.13 in 10.0 mi WNW 5.8 mph - N/A   Clear
5:35 AM 57.2 °F 53.6 °F 88% 30.13 in 10.0 mi WNW 10.4 mph - N/A   Clear
5:55 AM 57.2 °F 53.6 °F 88% 30.12 in 10.0 mi NW 10.4 mph - N/A   Clear
6:15 AM 57.2 °F 53.6 °F 88% 30.12 in 10.0 mi WNW 10.4 mph - N/A   Clear
6:35 AM 57.2 °F 53.6 °F 88% 30.12 in 10.0 mi NW 3.5 mph - N/A   Clear
6:55 AM 57.2 °F 53.6 °F 88% 30.12 in 10.0 mi NNW 4.6 mph - N/A   Clear
7:15 AM 57.2 °F 53.6 °F 88% 30.12 in 10.0 mi Calm Calm - N/A   Mostly Cloudy
7:35 AM 57.2 °F 53.6 °F 88% 30.12 in 10.0 mi NNW 4.6 mph - N/A   Overcast
7:55 AM 57.2 °F 53.6 °F 88% 30.13 in 10.0 mi WNW 5.8 mph - N/A   Mostly Cloudy
8:15 AM 57.2 °F 53.6 °F 88% 30.13 in 10.0 mi NNW 3.5 mph - N/A   Mostly Cloudy
8:35 AM 59.0 °F 53.6 °F 82% 30.14 in 10.0 mi North 3.5 mph - N/A   Overcast
8:55 AM 59.0 °F 53.6 °F 82% 30.14 in 10.0 mi West 3.5 mph - N/A   Overcast
9:15 AM 59.0 °F 53.6 °F 82% 30.13 in 10.0 mi WNW 3.5 mph - N/A   Mostly Cloudy
9:35 AM 60.8 °F 53.6 °F 77% 30.12 in 10.0 mi NNE 4.6 mph - N/A   Scattered Clouds
9:55 AM 62.6 °F 53.6 °F 72% 30.12 in 10.0 mi North 6.9 mph - N/A   Partly Cloudy
10:15 AM 64.4 °F 55.4 °F 73% 30.12 in 10.0 mi WNW 6.9 mph - N/A   Scattered Clouds
10:35 AM 64.4 °F 53.6 °F 68% 30.12 in 10.0 mi North 8.1 mph - N/A   Scattered Clouds
10:55 AM 64.4 °F 55.4 °F 73% 30.12 in 10.0 mi NW 8.1 mph - N/A   Scattered Clouds
11:15 AM 64.4 °F 55.4 °F 73% 30.10 in 10.0 mi North 9.2 mph - N/A   Scattered Clouds
11:35 AM 64.4 °F 55.4 °F 73% 30.10 in 10.0 mi NNW 5.8 mph - N/A   Clear
11:55 AM 66.2 °F 55.4 °F 68% 30.10 in 10.0 mi Calm Calm - N/A   Clear
12:15 PM 66.2 °F 55.4 °F 68% 30.08 in 10.0 mi NNE 5.8 mph - N/A   Clear
12:35 PM 68.0 °F 55.4 °F 64% 30.09 in 10.0 mi Calm Calm - N/A   Clear
12:55 PM 69.8 °F 55.4 °F 60% 30.09 in 10.0 mi WNW 4.6 mph - N/A   Scattered Clouds
1:15 PM 69.8 °F 55.4 °F 60% 30.08 in 10.0 mi North 9.2 mph - N/A   Scattered Clouds
1:35 PM 71.6 °F 57.2 °F 60% 30.07 in 10.0 mi NNW 12.7 mph - N/A   Clear
1:55 PM 71.6 °F 57.2 °F 60% 30.07 in 10.0 mi North 10.4 mph - N/A   Clear
2:15 PM 73.4 °F 55.4 °F 53% 30.07 in 10.0 mi NNW 9.2 mph - N/A   Clear
2:35 PM 73.4 °F 55.4 °F 53% 30.07 in 10.0 mi NNW 12.7 mph - N/A   Clear
2:55 PM 73.4 °F 55.4 °F 53% 30.07 in 10.0 mi NW 12.7 mph - N/A   Clear
3:15 PM 71.6 °F 55.4 °F 57% 30.07 in 10.0 mi NNW 17.3 mph - N/A   Clear
3:35 PM 73.4 °F 55.4 °F 53% 30.06 in 10.0 mi NW 18.4 mph 23.0 mph N/A   Clear
3:55 PM 73.4 °F 55.4 °F 53% 30.06 in 10.0 mi NW 17.3 mph 23.0 mph N/A   Clear
4:15 PM 71.6 °F 55.4 °F 57% 30.06 in 10.0 mi NW 18.4 mph 21.9 mph N/A   Clear
4:35 PM 71.6 °F 55.4 °F 57% 30.07 in 10.0 mi NW 15.0 mph 23.0 mph N/A   Clear
4:55 PM 71.6 °F 55.4 °F 57% 30.07 in 10.0 mi NW 17.3 mph - N/A   Clear
5:15 PM 71.6 °F 55.4 °F 57% 30.07 in 10.0 mi NW 15.0 mph 23.0 mph N/A   Clear
5:35 PM 69.8 °F 55.4 °F 60% 30.07 in 10.0 mi NW 15.0 mph - N/A   Clear
5:55 PM 69.8 °F 55.4 °F 60% 30.06 in 10.0 mi NW 19.6 mph 24.2 mph N/A   Clear
6:15 PM 69.8 °F 53.6 °F 56% 30.06 in 10.0 mi NW 19.6 mph 25.3 mph N/A   Clear
6:35 PM 66.2 °F 53.6 °F 64% 30.06 in 10.0 mi NW 20.7 mph 25.3 mph N/A   Clear
6:55 PM 64.4 °F 53.6 °F 68% 30.06 in 10.0 mi NW 19.6 mph 26.5 mph N/A   Clear
7:15 PM 64.4 °F 53.6 °F 68% 30.07 in 10.0 mi NW 18.4 mph 25.3 mph N/A   Clear
7:35 PM 62.6 °F 53.6 °F 72% 30.07 in 10.0 mi WNW 18.4 mph 25.3 mph N/A   Clear
7:55 PM 60.8 °F 53.6 °F 77% 30.08 in 10.0 mi WNW 16.1 mph 24.2 mph N/A   Clear
8:15 PM 60.8 °F 53.6 °F 77% 30.08 in 10.0 mi WNW 15.0 mph - N/A   Clear
8:35 PM 60.8 °F 53.6 °F 77% 30.08 in 10.0 mi WNW 13.8 mph - N/A   Clear
8:55 PM 59.0 °F 53.6 °F 82% 30.09 in 10.0 mi WNW 13.8 mph - N/A   Clear
9:15 PM 59.0 °F 51.8 °F 77% 30.08 in 10.0 mi NW 18.4 mph 24.2 mph N/A   Clear
9:35 PM 57.2 °F 51.8 °F 82% 30.08 in 10.0 mi NW 13.8 mph - N/A   Clear
9:55 PM 57.2 °F 51.8 °F 82% 30.08 in 10.0 mi NW 16.1 mph - N/A   Clear
10:15 PM 57.2 °F 51.8 °F 82% 30.09 in 10.0 mi WNW 12.7 mph - N/A   Clear
10:35 PM 57.2 °F 51.8 °F 82% 30.09 in 10.0 mi WNW 13.8 mph - N/A   Partly Cloudy
10:55 PM 57.2 °F 51.8 °F 82% 30.09 in 10.0 mi WNW 12.7 mph 18.4 mph N/A   Mostly Cloudy
11:15 PM 57.2 °F 51.8 °F 82% 30.09 in 10.0 mi WNW 12.7 mph - N/A   Overcast
11:35 PM 59.0 °F 51.8 °F 77% 30.09 in 10.0 mi WNW 8.1 mph - N/A   Overcast
11:55 PM 59.0 °F 51.8 °F 77% 30.09 in 10.0 mi WNW 10.4 mph - N/A   Overcast